Temp
47 41 37 42 45 46 44 41 38 41 46 43 42 43 46 47 45 45 46 46 48 49 50 49 49 48 48 48 50 56 57 57 55 52 49 47 47 51 48 45 46 45 46 47
43 38 44 48 49 46 44 40 38 42 44 42 41 41 46 46 47 49 49 48 49 49 46 47 47 46 46 47 48 51 55 56 55 54 51 50 51 50 49 45 44 44 45 45
40 44 49 47 45 43 41 39 39 40 42 41 39 37 40 44 48 49 52 53 52 50 48 48 46 46 45 45 46 49 50 52 54 55 53 52 51 49 47 44 42 42 44 44
44 48 46 44 42 43 36 44 43 41 38 30 40 27 36 40 42 45 48 49 49 49 48 47 46 45 46 45 46 48 49 49 51 51 53 52 50 48 47 42 41 41 42 42
41 42 42 41 43 45 41 46 42 40 36 33 32 29 35 39 41 44 45 47 49 48 48 46 47 48 46 45 44 45 46 47 48 50 52 52 51 49 46 42 40 41 41 42
43 47 45 45 46 46 47 44 41 37 33 22 30 29 31 36 41 44 45 46 46 46 47 48 48 46 44 43 43 44 44 45 46 47 52 52 50 47 44 42 38 38 39 39
40 42 45 47 43 45 43 37 25 22 20 23 31 29 33 42 46 45 46 47 46 44 44 44 43 43 43 43 42 42 43 43 44 44 47 51 50 48 45 43 39 37 37 37
34 31 42 46 45 41 39 38 28 22 21 25 32 28 37 44 45 45 45 45 45 42 43 43 43 43 42 42 41 42 41 41 42 42 43 45 48 47 46 41 39 37 37 37
31 32 42 43 44 47 38 33 41 32 25 24 29 34 42 43 44 42 43 43 43 42 40 41 40 41 41 41 41 41 40 40 40 40 40 40 41 41 39 38 38 37 37 38
37 31 38 41 43 42 41 44 32 30 17 18 27 28 34 39 42 44 44 43 43 41 39 39 39 40 40 41 41 40 40 40 39 39 38 39 38 38 37 37 36 35 35 36
38 35 33 38 35 35 36 34 35 35 31 25 22 29 38 41 41 42 44 44 43 41 39 38 37 38 38 38 37 38 37 37 36 36 36 36 35 36 36 35 35 36 35 35
40 35 27 32 38 39 38 36 37 29 27 28 29 33 43 42 42 41 42 42 41 39 39 37 37 36 36 36 36 37 36 36 36 35 35 34 35 35 34 34 34 35 35 35
39 26 18 26 33 34 35 37 39 37 36 31 27 32 42 40 41 40 41 42 41 39 37 37 35 35 36 35 36 35 35 36 35 34 34 33 33 33 33 33 34 34 34 33
44 33 29 24 30 32 32 34 38 37 32 33 34 36 45 46 43 47 49 43 44 41 39 37 35 36 35 35 35 34 34 34 34 33 33 32 32 33 33 33 33 34 33 32
37 22 27 31 32 32 33 33 33 32 37 32 37 37 43 48 45 47 46 45 44 41 38 38 37 37 36 34 35 35 36 33 34 33 32 33 33 33 32 31 32 32 32 32
35 25 29 24 32 31 29 33 34 33 34 34 35 34 46 49 48 46 48 45 41 42 43 42 38 38 36 36 37 36 35 34 34 33 33 33 32 31 31 32 31 31 31 30
27 28 19 23 26 24 21 28 32 35 38 36 31 39 46 45 46 47 44 42 43 44 42 41 39 40 39 39 38 36 36 34 32 33 33 32 31 31 31 31 31 31 30 30
21 17 20 20 20 15 29 32 32 32 35 38 38 41 44 45 46 48 42 42 42 42 42 42 41 41 42 41 38 38 36 33 32 32 32 32 31 31 31 30 31 31 30 29
31 26 23 20 18 26 30 31 30 31 34 37 35 40 43 44 38 41 41 40 40 41 42 42 42 42 43 43 40 36 34 33 32 32 32 32 32 31 30 30 30 30 29 28
27 31 26 12 11 3 27 32 34 34 25 42 39 40 39 35 32 36 40 41 45 45 41 41 41 40 38 40 36 34 33 32 31 32 33 33 32 32 30 31 30 30 30 30
19 20 20 18 15 13 27 31 33 17 28 33 34 34 33 31 34 41 43 40 39 41 41 42 37 37 38 37 33 32 33 31 34 34 33 31 31 31 32 31 30 29 29 29
13 14 12 5 2 8 30 30 25 32 32 35 35 36 35 37 39 36 39 39 37 36 39 37 35 35 36 33 31 32 31 35 33 32 31 30 30 31 31 29 29 28 28 27
11 19 15 18 18 25 30 31 33 31 33 33 32 35 33 34 33 38 36 38 38 36 38 37 33 36 35 32 31 31 34 32 30 29 29 28 28 29 30 28 27 26 27 26
15 13 15 21 24 26 31 33 34 38 38 39 35 33 32 33 36 35 35 36 35 35 34 35 34 36 35 32 31 32 33 29 27 27 27 27 26 27 27 29 28 27 26 26
21 21 18 23 31 30 33 35 38 40 40 38 37 33 33 33 35 33 34 36 37 37 35 35 35 35 34 33 29 30 28 25 26 27 26 26 26 26 26 27 28 28 29 29
22 29 23 25 35 33 36 38 38 34 36 35 31 33 33 30 34 35 34 35 35 35 35 34 33 32 33 32 30 27 25 27 27 25 25 26 26 26 26 26 26 32 32 33
MSLP
1016.94 1017.78 1018.44 1018.52 1018.31 1018.31 1018.71 1019.08 1019.64 1019.67 1019.61 1019.87 1019.93 1019.87 1019.68 1020.08 1020.78 1020.86 1020.89 1021.07 1020.94 1020.70 1020.92 1021.28 1021.80 1022.04 1022.13 1022.26 1022.37 1022.17 1022.17 1022.28 1022.63 1023.19 1023.63 1024.10 1024.02 1023.94 1024.16 1024.56 1024.71 1024.66 1024.32 1024.24
1017.70 1018.27 1018.52 1018.47 1018.34 1018.65 1019.07 1019.62 1020.15 1020.19 1020.07 1020.42 1020.39 1020.10 1019.47 1019.43 1019.34 1019.18 1019.47 1019.72 1019.55 1020.10 1020.38 1020.80 1021.36 1021.69 1021.70 1021.95 1022.21 1022.16 1022.05 1022.29 1022.44 1022.66 1023.00 1023.40 1023.66 1023.95 1024.18 1024.59 1024.77 1024.71 1024.48 1024.31
1018.05 1018.59 1018.43 1018.32 1018.48 1018.84 1019.41 1019.97 1020.35 1020.63 1020.57 1020.68 1020.89 1019.77 1018.88 1018.08 1017.99 1018.02 1017.99 1017.99 1018.47 1018.75 1019.46 1020.04 1020.65 1021.06 1021.40 1021.65 1021.91 1021.97 1021.96 1022.12 1022.29 1022.27 1022.75 1023.16 1023.66 1024.06 1024.50 1024.69 1024.90 1024.76 1024.61 1024.58
1018.43 1018.57 1018.54 1018.53 1018.78 1019.09 1019.62 1019.88 1020.15 1020.59 1021.18 1021.88 1021.73 1021.20 1019.35 1018.44 1018.09 1017.79 1017.58 1017.73 1017.94 1018.40 1018.92 1019.30 1019.87 1020.43 1020.77 1021.18 1021.72 1021.89 1021.94 1022.14 1022.14 1022.00 1022.44 1022.67 1023.08 1023.46 1024.01 1024.50 1024.86 1024.85 1024.70 1024.60
1018.97 1018.90 1018.97 1018.84 1018.89 1018.94 1019.46 1019.74 1020.52 1021.16 1021.96 1022.82 1022.94 1023.01 1019.52 1018.58 1018.02 1017.36 1016.76 1016.96 1017.20 1017.42 1017.92 1018.49 1018.93 1019.22 1019.96 1020.84 1021.42 1021.69 1022.06 1022.22 1022.06 1022.07 1022.17 1022.52 1022.80 1023.13 1023.74 1024.43 1024.91 1025.19 1025.15 1024.96
1019.29 1018.87 1018.70 1018.54 1018.78 1018.93 1019.31 1020.18 1021.18 1022.16 1022.98 1023.87 1023.43 1023.16 1020.33 1018.41 1017.71 1017.13 1016.68 1016.82 1016.99 1017.32 1017.67 1017.87 1018.32 1019.10 1019.90 1020.55 1021.12 1021.61 1021.99 1022.04 1022.03 1022.04 1022.06 1022.19 1022.41 1023.01 1023.76 1024.48 1024.86 1025.12 1025.26 1024.93
1019.81 1019.29 1018.77 1018.59 1019.19 1019.54 1020.15 1021.42 1022.71 1023.57 1024.16 1023.91 1023.46 1023.32 1019.72 1017.79 1016.99 1016.86 1016.95 1016.70 1016.87 1017.27 1017.64 1018.00 1018.44 1018.87 1019.56 1020.20 1020.79 1021.35 1021.79 1021.87 1021.98 1022.05 1022.08 1021.94 1022.18 1022.64 1023.09 1023.76 1024.32 1024.83 1025.01 1024.95
1019.99 1019.66 1018.98 1018.86 1019.08 1019.64 1020.52 1021.50 1022.83 1023.75 1024.32 1024.05 1023.04 1021.43 1018.52 1016.55 1016.22 1016.42 1016.66 1016.63 1016.88 1017.50 1017.63 1017.83 1018.41 1018.84 1019.36 1019.90 1020.62 1021.03 1021.38 1021.69 1021.89 1022.07 1022.04 1022.06 1022.10 1022.49 1022.97 1023.47 1024.02 1024.26 1024.56 1024.75
1020.29 1019.92 1019.29 1019.23 1019.32 1019.61 1021.15 1021.86 1022.24 1023.29 1024.29 1024.19 1022.03 1019.99 1017.98 1016.14 1016.06 1016.29 1016.49 1017.02 1017.42 1017.79 1018.09 1018.32 1018.74 1019.10 1019.71 1020.07 1020.20 1020.54 1021.17 1021.44 1021.57 1021.77 1022.10 1022.31 1022.31 1022.55 1022.97 1023.44 1023.85 1024.13 1024.34 1024.68
1020.61 1020.58 1019.98 1019.83 1019.92 1020.14 1020.40 1021.20 1022.49 1023.52 1024.19 1023.56 1021.37 1020.12 1018.33 1016.74 1016.66 1016.59 1016.69 1017.01 1017.38 1017.79 1018.14 1018.77 1019.00 1019.26 1019.39 1019.72 1019.82 1020.18 1020.57 1020.78 1020.84 1021.39 1021.93 1022.28 1022.38 1022.63 1022.97 1023.33 1023.71 1024.22 1024.43 1024.78
1021.06 1021.27 1021.21 1020.68 1020.62 1020.65 1021.11 1021.34 1021.92 1022.52 1022.93 1022.70 1021.54 1019.23 1017.34 1017.00 1016.64 1016.84 1016.95 1017.22 1017.56 1018.11 1018.43 1019.05 1019.72 1019.87 1019.94 1019.86 1019.99 1020.21 1020.48 1021.09 1021.32 1021.56 1021.79 1022.37 1022.74 1023.02 1023.27 1023.46 1023.67 1023.90 1024.04 1024.27
1021.39 1021.63 1021.74 1021.62 1021.09 1021.15 1021.28 1021.21 1021.39 1021.97 1022.28 1021.99 1020.95 1017.54 1016.16 1016.14 1016.44 1016.79 1017.05 1017.40 1017.69 1018.14 1018.44 1019.03 1019.43 1019.67 1019.72 1019.68 1019.79 1019.89 1020.05 1020.55 1020.88 1021.13 1021.47 1021.87 1022.17 1022.76 1023.13 1023.53 1023.88 1023.93 1024.12 1024.05
1021.66 1022.38 1022.66 1022.23 1022.12 1021.86 1021.59 1021.41 1021.68 1021.74 1021.70 1021.03 1020.29 1016.98 1015.67 1015.90 1016.14 1016.43 1016.86 1017.12 1017.51 1018.04 1018.47 1019.09 1019.29 1019.18 1019.24 1019.49 1019.58 1019.75 1019.86 1020.09 1020.51 1020.78 1021.54 1021.78 1021.80 1021.97 1022.26 1022.78 1023.42 1023.77 1024.04 1024.24
1021.90 1022.66 1022.99 1022.89 1022.87 1022.53 1022.17 1021.38 1021.21 1021.36 1021.14 1019.25 1018.67 1017.17 1015.14 1016.37 1016.90 1016.77 1016.61 1016.74 1016.73 1017.41 1018.14 1018.28 1018.67 1018.62 1018.42 1018.68 1018.90 1019.04 1019.26 1019.54 1020.25 1020.69 1021.00 1021.53 1021.79 1021.84 1021.94 1022.08 1022.65 1023.43 1023.92 1024.33
1022.77 1023.38 1023.53 1023.56 1023.64 1022.98 1022.41 1021.36 1021.00 1020.52 1020.10 1019.79 1017.97 1017.57 1015.85 1014.87 1016.54 1016.10 1016.17 1016.31 1016.83 1017.37 1017.66 1017.52 1017.71 1017.64 1017.52 1017.69 1017.71 1017.88 1018.05 1018.65 1019.38 1020.00 1020.31 1020.61 1021.04 1021.23 1021.71 1022.02 1022.12 1022.66 1023.30 1023.93
1024.17 1024.70 1025.06 1025.11 1024.34 1023.58 1021.89 1021.59 1021.51 1021.10 1020.82 1020.17 1018.77 1017.25 1016.27 1014.96 1016.12 1015.59 1015.65 1016.39 1016.84 1016.72 1016.54 1016.36 1016.71 1017.10 1017.09 1017.12 1017.16 1017.01 1017.12 1017.42 1018.27 1018.65 1018.54 1019.35 1020.10 1020.63 1021.10 1021.64 1022.20 1022.56 1022.91 1023.39
1025.90 1026.17 1026.51 1025.56 1025.08 1024.12 1021.59 1020.98 1020.68 1020.30 1019.74 1019.11 1018.18 1016.80 1015.95 1015.73 1015.22 1014.95 1015.63 1016.06 1016.25 1016.28 1016.22 1016.00 1016.37 1016.23 1015.86 1015.73 1015.69 1016.07 1016.40 1017.11 1017.52 1017.77 1018.04 1018.60 1019.29 1019.90 1020.32 1020.99 1021.30 1021.90 1022.02 1022.64
1026.57 1026.93 1026.92 1026.62 1026.17 1023.53 1021.09 1020.55 1020.43 1020.07 1018.74 1018.18 1017.56 1016.76 1016.00 1015.49 1014.76 1014.43 1015.57 1015.66 1015.93 1016.18 1015.87 1015.65 1015.47 1015.36 1015.07 1014.81 1014.97 1014.89 1015.07 1015.81 1016.53 1016.61 1016.96 1017.64 1018.15 1018.86 1019.56 1020.39 1020.68 1021.12 1021.44 1021.95
1026.31 1026.86 1027.36 1027.39 1026.32 1022.35 1021.18 1020.54 1020.32 1019.94 1017.58 1017.65 1017.56 1016.78 1016.23 1015.72 1015.75 1015.00 1015.12 1015.76 1015.96 1016.10 1015.84 1015.50 1015.02 1014.71 1014.20 1013.90 1013.98 1014.36 1014.77 1015.15 1015.62 1015.66 1015.90 1016.08 1016.55 1017.38 1018.22 1019.05 1019.72 1020.18 1020.80 1021.60
1027.10 1027.09 1027.75 1028.78 1027.74 1024.41 1021.10 1020.30 1019.71 1019.48 1017.08 1016.82 1016.89 1016.50 1016.44 1016.72 1016.63 1015.94 1015.91 1015.65 1015.54 1015.40 1015.29 1014.92 1014.49 1014.16 1013.71 1013.32 1013.45 1013.99 1014.00 1014.42 1014.60 1014.14 1013.56 1014.92 1015.96 1016.95 1017.48 1017.89 1018.75 1019.30 1019.83 1020.75
1028.54 1028.34 1027.78 1028.11 1027.33 1023.87 1021.56 1020.60 1020.02 1020.16 1017.30 1017.15 1017.00 1016.98 1017.15 1017.47 1017.39 1016.29 1016.01 1015.94 1015.80 1015.38 1015.00 1014.50 1014.45 1014.33 1013.48 1012.93 1012.96 1013.39 1013.56 1013.31 1012.81 1013.70 1014.12 1014.62 1014.83 1015.51 1016.36 1017.29 1017.99 1018.66 1019.42 1020.27
1027.88 1028.16 1028.19 1028.12 1027.00 1023.82 1020.43 1020.50 1020.27 1018.46 1017.66 1017.27 1017.12 1017.05 1017.17 1016.69 1016.14 1015.84 1015.32 1015.12 1015.13 1014.97 1014.61 1014.28 1014.10 1013.53 1012.88 1012.49 1012.75 1012.48 1012.41 1011.68 1012.47 1012.86 1013.45 1013.80 1014.15 1014.56 1014.98 1016.09 1017.19 1018.05 1018.73 1019.54
1026.88 1024.95 1025.46 1025.19 1022.86 1020.99 1019.82 1018.69 1018.46 1018.26 1017.58 1016.86 1016.74 1016.34 1016.64 1016.31 1015.88 1015.54 1014.94 1014.60 1014.30 1014.21 1013.99 1013.74 1013.27 1012.74 1012.21 1012.02 1012.07 1011.98 1010.74 1011.47 1011.91 1012.32 1012.50 1012.90 1013.72 1014.15 1014.58 1015.02 1015.62 1016.96 1018.06 1018.58
1024.98 1024.02 1024.13 1023.56 1020.49 1020.52 1018.25 1018.27 1017.49 1016.49 1016.51 1016.10 1016.45 1016.47 1016.49 1015.94 1015.45 1015.12 1014.58 1014.01 1013.84 1013.54 1013.36 1012.99 1012.66 1012.06 1011.40 1011.25 1011.22 1011.04 1011.04 1011.21 1011.34 1011.63 1011.93 1012.33 1012.64 1013.27 1013.86 1014.55 1014.99 1015.44 1016.12 1017.20
1023.46 1023.42 1022.20 1020.89 1019.80 1018.66 1016.64 1017.30 1016.61 1016.34 1016.23 1016.08 1015.89 1015.96 1015.95 1015.58 1014.69 1014.60 1013.94 1013.37 1012.92 1012.59 1012.37 1012.16 1011.65 1011.11 1010.52 1010.27 1010.09 1010.01 1010.22 1010.54 1010.76 1010.90 1011.30 1011.72 1012.10 1012.38 1012.89 1013.42 1013.95 1014.32 1014.51 1014.74
1021.92 1020.06 1020.64 1018.55 1017.01 1016.66 1015.02 1015.48 1015.56 1015.81 1015.48 1015.29 1015.22 1014.73 1014.94 1014.99 1014.10 1013.82 1012.90 1012.43 1011.97 1011.52 1011.27 1011.00 1010.53 1010.09 1009.53 1009.31 1009.01 1008.88 1009.26 1009.33 1009.85 1010.21 1010.58 1011.10 1011.50 1011.94 1011.90 1012.59 1013.44 1013.69 1014.37 1014.64
Wind_Speed
4 7 3 5 3 4 6 4 2 3 2 1 6 8 9 8 6 10 11 11 13 15 5 7 7 7 6 5 6 5 6 7 7 5 3 1 3 1 3 4 4 4 4 4
7 5 0 4 4 7 6 4 1 2 2 2 5 10 13 9 12 16 17 16 17 11 7 8 9 8 8 7 7 6 5 7 7 6 3 3 3 2 3 3 3 3 4 3
6 3 1 5 5 6 3 3 1 2 3 1 7 9 5 5 12 9 17 16 15 18 16 12 12 11 7 8 8 7 7 7 7 8 4 4 4 3 2 2 1 2 3 2
5 3 3 5 4 4 2 2 2 2 4 2 4 8 7 4 8 8 13 11 12 12 8 9 11 10 11 9 6 6 6 6 5 7 7 8 5 4 3 3 2 1 1 2
1 1 3 3 3 3 2 3 2 2 2 3 4 1 11 4 7 8 9 12 13 13 14 14 15 15 11 8 8 6 6 6 5 6 7 7 5 2 3 3 5 2 1 2
2 1 1 3 2 3 3 4 7 5 3 3 4 5 9 3 4 6 3 6 9 9 11 12 11 8 9 7 7 6 7 7 6 6 7 9 8 7 6 5 4 3 2 1
1 1 0 2 4 3 6 5 3 6 4 5 1 3 11 11 11 7 10 11 7 8 9 9 11 12 10 12 9 7 7 7 6 6 6 7 8 10 11 9 6 6 3 2
4 3 5 3 5 6 5 6 5 5 3 4 2 7 10 7 5 6 7 8 8 6 6 8 10 10 11 12 10 9 8 7 7 6 7 5 6 6 6 7 6 5 4 4
4 4 2 2 2 7 4 4 4 2 1 1 6 7 10 7 8 6 9 5 8 7 7 7 6 7 7 9 11 11 8 7 7 7 5 5 4 5 6 6 5 4 4 4
2 1 1 2 2 1 5 6 3 2 2 6 5 5 8 7 6 9 8 7 8 6 6 6 7 9 9 10 9 9 10 11 8 6 5 4 5 5 5 5 6 6 5 4
2 3 3 2 4 8 3 3 2 4 5 4 4 7 7 6 4 6 9 7 8 8 7 5 4 5 6 5 6 7 7 7 6 6 5 5 5 5 5 5 6 7 6 8
6 3 3 9 2 3 3 3 6 5 5 4 3 14 4 8 6 4 10 8 8 6 6 4 6 6 7 8 7 9 8 8 8 7 7 7 7 6 6 5 6 6 8 7
4 2 2 9 7 2 6 5 5 2 1 9 8 14 1 2 6 5 6 8 7 5 4 6 6 9 8 8 8 8 8 10 8 7 7 6 8 8 9 8 8 7 6 6
5 5 7 7 4 1 3 6 8 8 9 19 17 25 30 16 11 13 16 9 9 6 6 8 8 10 9 9 10 9 10 9 8 8 9 9 9 10 9 8 8 8 7 7
3 3 1 4 4 1 6 9 9 9 19 16 22 21 25 23 8 9 8 10 10 8 8 11 10 11 11 11 12 12 12 11 11 11 11 12 10 9 8 8 9 8 9 8
3 2 3 4 6 8 18 15 13 15 16 16 19 23 22 28 12 14 17 10 10 12 13 12 9 10 11 13 13 12 14 14 13 14 15 13 11 11 11 10 10 10 9 8
4 2 2 10 3 7 17 10 16 16 21 14 20 25 24 24 22 16 9 7 11 12 10 9 9 12 12 13 14 14 13 10 14 15 13 13 13 13 12 11 12 13 12 11
6 4 3 3 2 14 1 4 3 7 13 13 17 22 23 23 22 23 6 10 7 7 7 8 7 9 11 11 9 12 11 14 15 15 14 14 14 14 13 12 13 13 11 13
5 5 2 5 8 18 18 6 3 6 22 10 8 15 18 18 8 14 3 3 3 6 8 8 7 8 9 10 11 11 11 13 14 15 16 17 17 16 15 16 15 13 11 10
3 5 6 3 4 8 4 4 2 1 19 12 11 16 14 7 10 7 4 8 21 16 9 10 11 8 7 9 6 9 11 12 14 20 20 13 14 15 16 15 15 12 11 11
5 3 15 10 9 10 8 7 2 6 14 2 1 1 3 3 6 15 16 13 9 11 13 13 9 10 10 7 7 10 10 15 17 10 11 12 15 16 15 14 12 12 11 10
10 10 6 2 2 13 6 3 10 10 5 5 6 7 9 16 17 10 16 15 11 13 14 11 8 10 9 6 7 11 13 14 8 10 12 14 15 13 13 16 12 12 13 12
3 11 9 12 12 6 6 8 6 5 8 10 7 10 10 14 11 17 15 16 13 11 14 12 8 12 9 7 10 11 16 7 9 11 13 14 13 14 13 15 16 12 13 12
4 3 2 1 8 11 17 11 15 21 21 19 10 8 7 17 17 15 16 15 11 9 11 11 11 15 14 8 10 15 9 7 9 12 13 12 14 14 12 11 12 13 13 12
5 6 6 12 12 16 21 17 21 24 20 18 15 11 13 15 19 14 15 18 17 15 12 12 14 14 15 9 9 10 8 9 10 11 11 12 12 14 13 13 13 13 14 16
6 18 7 16 21 19 22 17 16 13 17 15 10 17 12 13 20 19 19 17 16 16 14 14 15 14 16 13 11 8 8 12 12 11 10 10 10 11 11 12 10 22 18 24
Wind_Direction
22 71 123 164 81 69 103 75 54 301 356 183 245 264 268 209 220 234 231 225 231 236 221 182 201 204 201 218 221 212 182 161 152 144 131 150 167 144 96 72 41 28 30 30
35 67 246 125 54 87 71 89 345 287 4 185 314 272 257 204 215 217 222 223 226 221 199 197 194 198 196 199 213 218 205 174 172 166 162 163 144 91 108 109 65 38 40 38
89 329 106 117 75 68 51 113 212 197 350 54 327 281 265 278 230 222 230 226 224 216 210 202 193 199 192 205 206 206 208 199 180 175 134 101 92 98 136 104 104 25 48 48
87 330 78 70 73 108 50 314 80 80 46 298 39 291 301 302 285 238 246 238 235 220 211 192 190 193 199 201 193 205 198 201 199 171 175 171 185 163 179 152 155 132 81 96
114 84 131 138 150 119 199 47 78 105 72 26 345 39 273 347 301 272 249 240 237 215 199 197 198 200 191 175 190 188 193 203 200 185 181 184 183 135 125 126 139 143 74 64
80 272 100 146 96 111 99 52 39 48 62 17 249 141 282 239 230 307 281 268 247 222 211 207 200 168 179 170 177 184 192 208 211 212 200 193 176 153 146 160 163 174 186 135
79 225 215 132 91 53 76 69 338 0 6 236 155 213 256 273 262 230 269 290 280 225 205 196 180 180 179 184 183 182 196 214 214 221 228 197 183 173 177 178 170 171 178 181
163 304 178 188 170 171 169 151 160 235 223 267 100 243 246 225 265 268 250 267 303 260 217 203 197 187 185 184 183 185 191 205 208 220 231 221 181 183 185 174 172 178 179 168
149 267 345 144 145 141 182 167 176 56 73 12 229 288 298 326 316 289 278 293 282 281 244 215 183 182 182 188 191 191 190 198 200 212 221 227 190 165 170 170 163 168 150 169
225 290 195 9 109 29 158 163 96 18 256 258 275 271 244 295 324 328 329 303 293 273 233 221 200 194 194 200 196 185 196 202 194 189 197 207 198 177 164 152 157 163 154 158
157 122 300 63 198 179 135 189 148 159 172 225 312 263 217 233 272 271 288 291 301 294 266 242 229 222 215 203 189 195 190 197 195 185 179 182 193 184 163 167 169 176 162 162
206 160 208 230 234 15 326 268 165 173 233 233 254 262 209 242 265 297 285 299 295 293 287 244 223 220 223 215 202 203 195 197 198 186 180 189 177 173 172 179 179 172 182 177
186 289 23 334 357 74 202 193 219 290 133 237 241 265 153 281 318 305 288 296 304 299 290 265 246 234 229 221 217 212 208 209 194 180 190 191 189 181 184 182 181 182 171 174
146 175 181 187 195 142 247 219 217 204 235 250 245 267 278 271 301 301 294 282 278 259 246 239 241 239 229 219 214 211 214 199 188 185 188 199 200 197 192 179 175 177 175 176
89 204 195 254 260 265 244 249 252 229 247 247 262 255 273 276 256 264 276 278 295 297 262 248 246 238 230 221 218 216 213 194 186 193 200 205 199 194 187 181 178 171 174 179
22 280 46 285 297 269 267 271 267 260 261 268 267 277 268 291 282 273 274 297 284 274 264 266 255 256 251 244 239 224 214 202 187 199 204 198 193 189 193 190 185 179 176 168
139 177 109 273 344 323 270 226 242 254 248 250 258 261 277 275 280 279 290 262 265 277 288 293 261 252 252 244 231 225 219 197 200 209 205 198 194 196 193 187 183 188 184 176
146 110 141 260 22 256 135 47 354 271 259 255 261 265 268 277 281 289 238 260 299 299 303 300 278 271 267 257 237 227 203 199 204 209 202 200 195 196 191 189 193 192 183 182
173 128 268 255 240 285 300 307 239 229 276 226 238 263 268 272 322 297 240 143 249 277 281 276 271 270 287 271 243 214 208 202 206 209 209 205 197 193 187 193 195 189 181 183
153 218 206 97 252 255 15 83 197 286 273 287 239 262 281 11 305 307 283 325 324 312 282 291 293 287 285 289 205 208 215 209 212 212 212 199 194 197 196 194 192 187 185 188
119 184 220 226 245 276 250 241 120 151 267 355 17 278 295 275 228 277 290 289 250 262 276 283 279 279 281 284 188 217 220 221 225 219 208 200 192 194 194 193 186 181 181 178
160 166 191 134 187 280 226 77 180 224 281 192 214 238 268 290 296 281 293 292 288 270 278 276 266 275 280 244 203 225 226 235 207 196 199 197 194 195 184 182 182 183 182 181
263 184 184 183 207 229 231 223 246 215 235 249 224 252 245 270 267 288 283 289 284 266 275 276 264 285 283 239 212 237 244 202 192 192 199 194 191 193 191 185 179 176 185 185
280 155 176 72 225 236 247 241 241 253 265 281 287 260 247 272 280 278 280 281 281 274 268 267 275 289 288 254 227 233 252 197 185 200 202 193 189 190 187 192 188 186 183 188
181 130 198 258 274 269 264 257 268 277 282 283 279 264 253 264 276 271 274 279 281 278 272 265 274 274 273 270 238 236 212 179 201 204 201 198 196 192 187 196 194 199 196 189
175 228 202 248 250 243 271 271 273 273 275 271 259 277 267 245 270 276 275 273 273 273 269 267 263 266 271 269 259 232 199 190 199 204 198 199 196 195 189 189 196 207 204 200